Regional Weather Roundup
Issued by NWS Upton, NY

Current Version | Previous Version | Graphics & Text | Print | Product List | Glossary Off
Versions: 1 2 3 4 5 6 7 8 9 10 11 12 13 14 15 16 17 18 19 20 21 22 23 24 25 26 27 28

000
ASUS41 KOKX 192008
RWROKX

REGIONAL WEATHER ROUNDUP
NATIONAL WEATHER SERVICE NEW YORK NY
300 PM EST SUN FEB 19 2017

NOTE: "FAIR" INDICATES FEW OR NO CLOUDS BELOW 12,000 FEET WITH NO
SIGNIFICANT WEATHER AND/OR OBSTRUCTIONS TO VISIBILITY.

NYZ071-072-176-178-NJZ106-104-192100-
NEW YORK CITY METRO AREA

CITY           SKY/WX    TMP DP  RH WIND       PRES   REMARKS
Central Park   SUNNY     65  30  27 W7        29.82R
Wall St Helipt NOT AVBL
LaGuardia APRT MOSUNNY   66  30  26 W14G22    29.79S
Kennedy INTL   MOSUNNY   67  31  26 NW16G29   29.80S
Breezy Point     N/A     59 N/A N/A W6          N/A
Newark/Liberty MOSUNNY   68  33  27 W14G23    29.79S
Teterboro      SUNNY     65  34  31 NW14      29.79S
$$

NYZ177-179-078>081-192100-
LONG ISLAND NEW YORK

CITY           SKY/WX    TMP DP  RH WIND       PRES   REMARKS
Jones Beach      N/A     55 N/A N/A W10         N/A
Matinecock PT    N/A     54 N/A N/A W14         N/A
Farmingdale    SUNNY     64  32  30 NW10G20   29.79S
MacArthur/ISP  MOSUNNY   64  32  30 NW15G28   29.78R
Shirley        SUNNY     63  33  32 W15G23    29.78S
Westhampton    SUNNY     63  32  31 W17       29.78S
Southampton    NOT AVBL
Bridgehampton  NOT AVBL
East Hampton     N/A     61  34  35 W8        29.77R
Montauk          N/A     59  36  42 W9        29.77S
$$

NYZ052-065-067-192100-
HUDSON VALLEY

CITY           SKY/WX    TMP DP  RH WIND       PRES   REMARKS
White Plains   SUNNY     62  32  32 NW12      29.78R
Newburgh       SUNNY     59  36  41 W17G29    29.79R
Montgomery     SUNNY     61  30  31 NW12G20   29.78R
Poughkeepsie   SUNNY     60  30  32 NW8       29.77R
Albany         MOSUNNY   52  32  46 W16G30    29.81R
$$

NJZ001-105-106-008-010-013-015-019>022-104-192100-
NEW JERSEY

CITY           SKY/WX    TMP DP  RH WIND       PRES   REMARKS
Newark/Liberty MOSUNNY   68  33  27 W14G23    29.79S
Teterboro      SUNNY     65  34  31 NW14      29.79S
Caldwell       SUNNY     64  32  30 W10       29.81R
Somerville     SUNNY     67  32  27 W8        29.80S
Linden         NOT AVBL
Sussex         SUNNY     61  32  33 W8        29.82R
Andover          N/A     62  30  29 N8G18     29.82S
Trenton        SUNNY     68  32  26 NW10G20   29.83R
Millville      SUNNY     70  41  34 NW15      29.85R
Atlantic City  SUNNY     70  36  28 W14       29.83R
Wrightstown    SUNNY     69  35  29 NW12G21   29.80S
Toms River     SUNNY     68  36  30 NW9       29.83R
Belmar         SUNNY     68  35  29 W12G18    29.82R
$$

PAZ047>061-062-071-192100-
EASTERN PENNSYLVANIA

CITY           SKY/WX    TMP DP  RH WIND       PRES   REMARKS
Philadelphia   MOSUNNY   69  37  30 W14       29.85R
Allentown      SUNNY     67  33  28 NW14      29.84R
Scranton       SUNNY     64  37  36 MISG      29.83R
$$

CTZ002-004>006-009-010-012-RIZ004-006-007-MAZ004-011-015-192100-
SOUTHERN NEW ENGLAND
 IN CT

CITY           SKY/WX    TMP DP  RH WIND       PRES   REMARKS
Bradley INTL   MOSUNNY   56  28  34 NW15      29.74R
Hartford       SUNNY     61  32  33 W7        29.75R
Danbury        SUNNY     57  32  38 W9        29.79R
Wtrbury/Oxford SUNNY     57  30  35 NW8G17    29.79R
Bridgeport     SUNNY     63  33  32 W10       29.77R
Meriden        SUNNY     61  31  32 NW10      29.76S
New Haven      SUNNY     58  37  45 S5        29.77R
Chester          N/A     61  30  31 NW9       29.76R
Groton         SUNNY     57  37  47 SW12      29.74F
Wilimantic     SUNNY     61  30  31 W10       29.75R

 IN RI

CITY           SKY/WX    TMP DP  RH WIND       PRES   REMARKS
Providence     PTSUNNY   62  31  31 W14       29.72S
Block Island   SUNNY     56  38  50 W15G21    29.76S
Westerly       SUNNY     55  35  47 SW10      29.76S
 IN MA

CITY           SKY/WX    TMP DP  RH WIND       PRES   REMARKS
Boston         PTSUNNY   59  31  34 W17       29.68S
Worcester      SUNNY     55  27  34 W17G25    29.71R
Westfield      SUNNY     57  27  31 W17G25    29.74R
Provincetown   CLOUDY    53  37  54 W12       29.70R
Nantucket      MOSUNNY   55  35  47 W20G28    29.73S
$$

ANZ330-335-338-340-345-350-353-355-192100-
COASTAL MARINE OBSERVATIONS


STATION/POSITION TIME  SKY/WX   TEMP    WIND        PRES    VSBY  WAVE
                                AIR SEA DIR/SP/G                  HT/PER
                 (UTC)          (F)     (DEG/KT/KT) (MB)    (MI)  (FT/S)
NY HARB ENTRANCE 1850            52 42  270/  6/  8 1008.9          2/ 6
20 S FIRE ISLAND 1950            47 40  230/  8/  8 1009.0          3/ 7
GREAT SOUTH BAY  NOT AVBL
23 SSW MONTAUK P 1850            47 44              1008.6          3/ 6
15 E BARNEGAT LI 1930               43                N/A           3/ 7
HUDSON CANYON    1850               51              1009.3          4/ 7
KINGS POINT      1942            56 38              1008.7
EXECUTION ROCKS  NOT AVBL
CENTRAL LI SOUND 1915            46     240/  6/  8   N/A           0
EASTERN LI SOUND NOT AVBL
ROBBINS REEF     1948            64     290/ 12/ 15 1009.0
$$


>>>>>>>>>>>>>>>>>>>>>>>>>>>> KEY <<<<<<<<<<<<<<<<<<<<<<<<<<<
>                                                          <
>     SKY/WX - Sky Condition/Present Weather               <
>     TMP    - Temperature in Fahrenheit                   <
>     DP     - Dew Point in Fahrenheit                     <
>     RH     - Relative Humidity in Percent                <
>     WIND   - Direction (from) and Speed in MPH           <
>     PRES   - Mean Sea Level Pressure (inches of Hg)      <
>     WCI    - Wind Chill Index                            <
>     VSB    - VISIBILITY IN MILES                         <
>     HX     - HEAT INDEX                                  <
>     TC     - TEMPERATURE IN CELSIUS                      <
>     VRB    - VARIABLE WIND DIRECTION                     <
>                                                          <
>>>>>>>>>>>>>>>>>>>>>>>>>>>> KEY <<<<<<<<<<<<<<<<<<<<<<<<<<<




USA.gov is the U.S. government's official web portal to all federal, state and local government web resources and services.